EIN192 EIDW-EGGP

Flight info

Callsign EIN192
Flight time 0h 37m
Altitude 17000
Route BOFUM3J BOFUM
Aircraft A320/M-SDE3FGHIRWY/LB1

Departure

Time 2026-04-30 13:50
Airport Dublin Airport (EIDW)

Arrival

Time 2026-04-30 14:28
Airport Liverpool John Lennon Airport (EGGP)
Time Latitude Longitude Altitude Speed Heading
2026-04-30 13:23 53.42358 -6.24534 211 ft 0 kts 135°
2026-04-30 13:40 53.42363 -6.24542 211 ft 4 kts 135°
2026-04-30 13:40 53.42383 -6.24574 215 ft 4 kts 135°
2026-04-30 13:40 53.42401 -6.24604 212 ft 3 kts 135°
2026-04-30 13:41 53.42418 -6.24623 212 ft 4 kts 202°
2026-04-30 13:41 53.42431 -6.24603 211 ft 3 kts 243°
2026-04-30 13:41 53.42430 -6.24606 211 ft 0 kts 243°
2026-04-30 13:44 53.42430 -6.24608 211 ft 1 kts 243°
2026-04-30 13:44 53.42418 -6.24644 216 ft 4 kts 241°
2026-04-30 13:44 53.42405 -6.24686 217 ft 4 kts 242°
2026-04-30 13:44 53.42384 -6.24731 215 ft 10 kts 228°
2026-04-30 13:45 53.42266 -6.24929 214 ft 13 kts 228°
2026-04-30 13:45 53.42214 -6.25045 220 ft 12 kts 242°
2026-04-30 13:45 53.42200 -6.25181 210 ft 12 kts 283°
2026-04-30 13:46 53.42213 -6.25311 217 ft 11 kts 274°
2026-04-30 13:46 53.42219 -6.25432 211 ft 10 kts 275°
2026-04-30 13:46 53.42229 -6.25608 211 ft 17 kts 275°
2026-04-30 13:46 53.42239 -6.25795 213 ft 16 kts 275°
2026-04-30 13:47 53.42248 -6.25969 214 ft 15 kts 275°
2026-04-30 13:47 53.42256 -6.26134 211 ft 14 kts 273°
2026-04-30 13:47 53.42264 -6.26328 219 ft 29 kts 275°
2026-04-30 13:47 53.42284 -6.26658 214 ft 27 kts 276°
2026-04-30 13:48 53.42302 -6.26967 211 ft 26 kts 275°
2026-04-30 13:48 53.42319 -6.27256 211 ft 24 kts 275°
2026-04-30 13:48 53.42334 -6.27529 211 ft 23 kts 275°
2026-04-30 13:48 53.42347 -6.27783 211 ft 21 kts 275°
2026-04-30 13:49 53.42362 -6.28019 211 ft 20 kts 276°
2026-04-30 13:49 53.42374 -6.28237 214 ft 15 kts 272°
2026-04-30 13:49 53.42310 -6.28316 211 ft 12 kts 163°
2026-04-30 13:49 53.42231 -6.28245 217 ft 13 kts 150°
2026-04-30 13:50 53.42196 -6.28099 212 ft 18 kts 95°
2026-04-30 13:50 53.42088 -6.26113 258 ft 143 kts 95°
2026-04-30 13:50 53.41989 -6.24463 937 ft 143 kts 95°
2026-04-30 13:51 53.41895 -6.22827 1634 ft 146 kts 99°
2026-04-30 13:51 53.41790 -6.20997 2075 ft 168 kts 100°
2026-04-30 13:51 53.41668 -6.18900 2471 ft 194 kts 101°
2026-04-30 13:51 53.41529 -6.16507 2964 ft 218 kts 102°
2026-04-30 13:52 53.41375 -6.13820 3527 ft 242 kts 101°
2026-04-30 13:52 53.41214 -6.10952 4420 ft 251 kts 100°
2026-04-30 13:52 53.41055 -6.08049 5354 ft 257 kts 99°
2026-04-30 13:52 53.40898 -6.05040 6333 ft 262 kts 97°
2026-04-30 13:53 53.41163 -6.01958 7256 ft 274 kts 75°
2026-04-30 13:53 53.41887 -5.98973 8211 ft 278 kts 72°
2026-04-30 13:53 53.42632 -5.95961 9168 ft 281 kts 73°
2026-04-30 13:53 53.43382 -5.92911 10096 ft 285 kts 73°
2026-04-30 13:54 53.44151 -5.89735 10578 ft 305 kts 74°
2026-04-30 13:54 53.44976 -5.86296 10878 ft 329 kts 73°
2026-04-30 13:54 53.45858 -5.82607 11216 ft 349 kts 73°
2026-04-30 13:54 53.46769 -5.78829 11871 ft 356 kts 73°
2026-04-30 13:55 53.47712 -5.74947 12644 ft 361 kts 73°
2026-04-30 13:55 53.48669 -5.71015 13427 ft 365 kts 74°
2026-04-30 13:55 53.49634 -5.67039 14156 ft 369 kts 74°
2026-04-30 13:55 53.50602 -5.63026 14829 ft 372 kts 74°
2026-04-30 13:56 53.51579 -5.58956 15506 ft 376 kts 75°
2026-04-30 13:56 53.52560 -5.54854 16173 ft 380 kts 75°
2026-04-30 13:56 53.53314 -5.50676 16801 ft 377 kts 84°
2026-04-30 13:56 53.53626 -5.46276 17081 ft 372 kts 95°
2026-04-30 13:57 53.53546 -5.41909 17146 ft 383 kts 98°
2026-04-30 13:57 53.53417 -5.37376 17147 ft 401 kts 98°
2026-04-30 13:57 53.53287 -5.32632 17148 ft 409 kts 98°
2026-04-30 13:57 53.53164 -5.27835 17146 ft 410 kts 97°
2026-04-30 13:58 53.53044 -5.23030 17149 ft 411 kts 97°
2026-04-30 13:58 53.52807 -5.13427 17145 ft 410 kts 97°
2026-04-30 13:58 53.52673 -5.08630 17145 ft 410 kts 98°
2026-04-30 13:59 53.52525 -5.03843 17145 ft 410 kts 98°
2026-04-30 13:59 53.52369 -4.99129 17147 ft 409 kts 98°
2026-04-30 13:59 53.52205 -4.94331 17147 ft 409 kts 98°
2026-04-30 13:59 53.52041 -4.89548 17147 ft 409 kts 98°
2026-04-30 14:00 53.51879 -4.84768 17145 ft 409 kts 98°
2026-04-30 14:00 53.51564 -4.75265 17141 ft 409 kts 98°
2026-04-30 14:00 53.51405 -4.70492 17143 ft 409 kts 98°
2026-04-30 14:01 53.51245 -4.65711 17144 ft 409 kts 98°
2026-04-30 14:01 53.51084 -4.60937 17123 ft 409 kts 98°
2026-04-30 14:01 53.50918 -4.56147 17122 ft 409 kts 98°
2026-04-30 14:01 53.50748 -4.51372 17128 ft 409 kts 98°
2026-04-30 14:02 53.50633 -4.48200 17128 ft 410 kts 98°
2026-04-30 14:02 53.50400 -4.41865 17130 ft 410 kts 98°
2026-04-30 14:02 53.50280 -4.38622 17132 ft 410 kts 98°
2026-04-30 14:02 53.50110 -4.33958 16940 ft 399 kts 98°
2026-04-30 14:03 53.49943 -4.29354 16690 ft 393 kts 98°
2026-04-30 14:03 53.49775 -4.24793 16436 ft 390 kts 98°
2026-04-30 14:03 53.49603 -4.20258 16142 ft 385 kts 98°
2026-04-30 14:03 53.49434 -4.15800 15620 ft 379 kts 98°
2026-04-30 14:04 53.49265 -4.11400 15063 ft 373 kts 98°
2026-04-30 14:04 53.49092 -4.07078 14545 ft 368 kts 98°
2026-04-30 14:04 53.48920 -4.02821 14001 ft 364 kts 98°
2026-04-30 14:04 53.48747 -3.98648 13412 ft 359 kts 99°
2026-04-30 14:05 53.48317 -3.94570 12792 ft 351 kts 109°
2026-04-30 14:05 53.47547 -3.90713 12182 ft 346 kts 112°
2026-04-30 14:05 53.46754 -3.86904 11520 ft 344 kts 112°
2026-04-30 14:05 53.45974 -3.83133 11188 ft 334 kts 112°
2026-04-30 14:06 53.45242 -3.79572 11076 ft 318 kts 112°
2026-04-30 14:06 53.43858 -3.72866 10827 ft 291 kts 112°
2026-04-30 14:07 53.42570 -3.66683 10415 ft 276 kts 112°
2026-04-30 14:07 53.41935 -3.63652 10176 ft 275 kts 111°
2026-04-30 14:07 53.41532 -3.60503 10020 ft 278 kts 98°
2026-04-30 14:08 53.41823 -3.53920 9734 ft 285 kts 88°
2026-04-30 14:08 53.42049 -3.50653 9591 ft 285 kts 88°
2026-04-30 14:08 53.42509 -3.43978 8701 ft 285 kts 88°
2026-04-30 14:09 53.42736 -3.40686 8265 ft 283 kts 88°
2026-04-30 14:09 53.42958 -3.37387 7629 ft 290 kts 88°
2026-04-30 14:09 53.43231 -3.31080 7271 ft 242 kts 107°
2026-04-30 14:10 53.42591 -3.28695 7127 ft 213 kts 129°
2026-04-30 14:10 53.41570 -3.26998 6848 ft 204 kts 143°
2026-04-30 14:10 53.40455 -3.25547 6545 ft 202 kts 144°
2026-04-30 14:10 53.39335 -3.24144 6221 ft 200 kts 145°
2026-04-30 14:11 53.38219 -3.22759 5900 ft 199 kts 145°
2026-04-30 14:11 53.37138 -3.21424 5596 ft 197 kts 145°
2026-04-30 14:11 53.36040 -3.20072 5285 ft 195 kts 145°
2026-04-30 14:11 53.34956 -3.18741 4872 ft 191 kts 145°
2026-04-30 14:12 53.33887 -3.17433 4381 ft 189 kts 145°
2026-04-30 14:12 53.32891 -3.16031 3908 ft 187 kts 132°
2026-04-30 14:12 53.32238 -3.14101 3431 ft 197 kts 111°
2026-04-30 14:12 53.32089 -3.11803 3086 ft 202 kts 91°
2026-04-30 14:13 53.32203 -3.09513 2796 ft 190 kts 91°
2026-04-30 14:13 53.32308 -3.07381 2520 ft 178 kts 90°
2026-04-30 14:13 53.32404 -3.05406 2327 ft 166 kts 90°
2026-04-30 14:13 53.32493 -3.03552 2081 ft 155 kts 91°
2026-04-30 14:14 53.32576 -3.01809 1870 ft 145 kts 90°
2026-04-30 14:14 53.32651 -3.00218 1694 ft 132 kts 89°
2026-04-30 14:14 53.32721 -2.98731 1515 ft 125 kts 90°
2026-04-30 14:14 53.32789 -2.97272 1352 ft 125 kts 90°
2026-04-30 14:15 53.32857 -2.95821 1180 ft 125 kts 91°
2026-04-30 14:15 53.32925 -2.94380 1020 ft 123 kts 90°
2026-04-30 14:15 53.32993 -2.92939 847 ft 124 kts 90°
2026-04-30 14:15 53.33068 -2.91505 721 ft 124 kts 91°
2026-04-30 14:16 53.33146 -2.90065 530 ft 128 kts 89°
2026-04-30 14:16 53.33194 -2.88624 431 ft 123 kts 90°
2026-04-30 14:16 53.33264 -2.87191 191 ft 125 kts 89°
2026-04-30 14:16 53.33332 -2.85775 120 ft 119 kts 92°
2026-04-30 14:17 53.33370 -2.84276 736 ft 132 kts 92°
2026-04-30 14:17 53.33405 -2.82730 1604 ft 138 kts 92°
2026-04-30 14:17 53.33446 -2.81012 2067 ft 157 kts 92°
2026-04-30 14:17 53.33494 -2.79036 2421 ft 181 kts 92°
2026-04-30 14:18 53.33461 -2.76911 2501 ft 185 kts 106°
2026-04-30 14:18 53.32774 -2.75156 2604 ft 185 kts 138°
2026-04-30 14:18 53.30323 -2.73567 2981 ft 193 kts 169°
2026-04-30 14:19 53.28041 -2.75865 3015 ft 220 kts 240°
2026-04-30 14:19 53.27704 -2.78411 3019 ft 228 kts 260°
2026-04-30 14:19 53.27650 -2.81077 3018 ft 230 kts 264°
2026-04-30 14:20 53.27664 -2.83752 3015 ft 230 kts 265°
2026-04-30 14:20 53.27675 -2.86386 3008 ft 228 kts 265°
2026-04-30 14:20 53.27681 -2.91735 3008 ft 230 kts 265°
2026-04-30 14:21 53.27671 -2.94415 3010 ft 230 kts 265°
2026-04-30 14:21 53.27670 -2.97094 3015 ft 230 kts 265°
2026-04-30 14:21 53.27684 -3.02397 3010 ft 230 kts 265°
2026-04-30 14:22 53.27690 -3.05082 3011 ft 230 kts 265°
2026-04-30 14:22 53.28083 -3.10379 3002 ft 238 kts 298°
2026-04-30 14:22 53.29236 -3.12325 3004 ft 233 kts 332°
2026-04-30 14:23 53.32108 -3.12950 2940 ft 195 kts 40°
2026-04-30 14:23 53.32611 -3.09475 2748 ft 162 kts 121°
2026-04-30 14:24 53.32450 -3.05755 2323 ft 169 kts 90°
2026-04-30 14:24 53.32511 -3.03793 2114 ft 167 kts 92°
2026-04-30 14:25 53.32656 -3.00226 1700 ft 136 kts 90°
2026-04-30 14:25 53.32793 -2.97222 1354 ft 127 kts 90°
2026-04-30 14:26 53.32926 -2.94337 1040 ft 123 kts 90°
2026-04-30 14:26 53.32990 -2.92911 881 ft 123 kts 91°
2026-04-30 14:26 53.33137 -2.90019 454 ft 124 kts 87°
2026-04-30 14:27 53.33210 -2.88608 286 ft 122 kts 87°
2026-04-30 14:27 53.33275 -2.87199 196 ft 123 kts 90°
2026-04-30 14:27 53.33339 -2.85783 100 ft 120 kts 91°
2026-04-30 14:28 53.33410 -2.83988 84 ft 41 kts 83°
2026-04-30 14:28 53.33429 -2.83678 75 ft 16 kts 75°
2026-04-30 14:28 53.33530 -2.83629 73 ft 15 kts 355°
2026-04-30 14:28 53.33579 -2.83664 71 ft 8 kts 301°
2026-04-30 14:29 53.33579 -2.83866 73 ft 9 kts 263°
2026-04-30 14:29 53.33572 -2.84026 71 ft 13 kts 267°
2026-04-30 14:30 53.33542 -2.84681 80 ft 14 kts 265°
2026-04-30 14:31 53.33532 -2.84911 85 ft 8 kts 265°
2026-04-30 14:31 53.33525 -2.85076 89 ft 7 kts 266°
2026-04-30 14:31 53.33521 -2.85154 85 ft 6 kts 265°
2026-04-30 14:32 53.33512 -2.85395 85 ft 18 kts 268°
2026-04-30 14:32 53.33569 -2.85512 88 ft 8 kts 349°
2026-04-30 14:32 53.33627 -2.85583 87 ft 14 kts 341°
2026-04-30 14:33 53.33656 -2.85586 89 ft 0 kts 357°
2026-04-30 14:33 53.33661 -2.85586 89 ft 0 kts 357°